Regional Weather Roundup
Issued by NWS Lake Charles, LA

Home | Current Version | Previous Version | Text Only | Print | Product List | Glossary On
Versions: 1 2 3 4 5 6 7 8 9 10 11 12 13 14 15 16 17 18 19 20 21 22 23 24 25 26 27 28 29 30 31 32 33 34 35 36 37 38 39 40 41 42 43 44 45 46 47 48 49 50
000
ASUS44 KLCH 041610
RWRLCH
RWRLCH
REGIONAL WEATHER ROUNDUP
NATIONAL WEATHER SERVICE LAKE CHARLES LA
1100 AM CDT FRI SEP 04 2015

Note: "fair" indicates few or no clouds below 12,000 feet with no
significant weather and/or obstructions to visibility.


ACROSS SOUTHEAST TEXAS

CITY           SKY/WX    TMP DP  RH WIND       PRES   REMARKS
BEAUMONT       MOSUNNY   84  75  74 CALM      29.98R
BEAUMONT CITY    N/A     82  74  78 SE6       29.99S
ORANGE         PTSUNNY   81  73  78 CALM      30.00S
JASPER         PTSUNNY   87  76  69 NE3       30.02R
$$

ACROSS CENTRAL LOUISIANA

CITY           SKY/WX    TMP DP  RH WIND       PRES   REMARKS
LEESVILLE      PTSUNNY   84  75  73 E6        29.99S
FULLERTON        N/A     88  74  63 VRB3      29.98S
ALEXANDRIA INT CLOUDY    88  72  58 CALM      29.99R
ESLER FIELD    SUNNY     90  72  55 SW5       30.01R
DERIDDER       PTSUNNY   87  72  60 CALM      30.01S
OAKDALE          N/A     84  75  75 CALM      30.00S
OPELOUSAS        N/A     88  73  61 SE3       30.00S
$$

ACROSS SOUTHWEST AND SOUTH CENTRAL LOUISIANA

CITY           SKY/WX    TMP DP  RH WIND       PRES   REMARKS
SULPHUR        MOSUNNY   88  78  72 SE7       30.00R HX 102
LAKE CHARLES   PTSUNNY   78  75  90 SE14      30.00R
CHENNAULT INT  PTSUNNY   84  77  79 E3        29.99
CAMERON PHI    MOSUNNY   81  77  89 SE5       30.03R FOG
DEQUINCY       CLOUDY    85  75  71 CALM      29.99S
JENNINGS         N/A     84  74  72 CALM      29.99S
LAFAYETTE      MOSUNNY   86  75  69 CALM      30.00S
NEW IBERIA     CLOUDY    89  78  70 W10G16    30.00S HX 103
ABBEVILLE      PTSUNNY   87  76  71 SE3       30.00S
PATTERSON      PTSUNNY   88  75  66 W14       30.01F
SALT POINT       N/A     88  78  72 VRB5      29.99R HX 101
$$

SELECTED SITES ACROSS THE REGION

CITY           SKY/WX    TMP DP  RH WIND       PRES   REMARKS
HOUSTON BUSH   PTSUNNY   85  75  72 CALM      29.97R
HOUSTON HOBBY  MOSUNNY   86  75  69 CALM      29.96R
GALVESTON      SUNNY     87  76  69 S6        29.98R
COLLEGE STAT   PTSUNNY   84  73  69 SE6       29.98R
CONROE         MOSUNNY   86  73  65 VRB5      29.98S
HUNTSVILLE     MOSUNNY   87  72  60 SW8       29.98R
LUFKIN         MOSUNNY   84  73  69 SW8       29.99R
SHREVEPORT     MOSUNNY   89  72  56 NW3       29.99S
MONROE         MOSUNNY   89  73  59 W5        30.01S
NATCHEZ MS     PTSUNNY   84  73  70 NW3       30.03S
BATON ROUGE    PTSUNNY   83  74  74 E6        30.01S
N.O. INTL ARPT PTSUNNY   87  74  64 NE8       30.01R
SLIDELL        PTSUNNY   86  76  71 SE7       30.01R
$$

MARINE REPORTS

STATION/POSITION TIME  TEMP    WIND        PRES    VSBY  WAVE
                       AIR SEA DIR/SP/G                  HT/PER
                 (UTC) (F)     (DEG/KT/KT) (MB)    (MI)  (FT/S)
BUOY 30 S HIGH I 1550   85 85  170/  6/  8 1015.2R         2/ 4
SEA RIM ST PARK  1600   83     150/  3/  4 1015.9R
PORT ARTHUR      1500      85   CALM  /  1 1015.2R
SABINE PASS N    1500   82 84  110/  1/  2 1015.4R
TEXAS POINT      NOT AVBL
CALCASIEU PASS   1500   80 84   20/  2/  5 1014.5R
LK CHARLES BEACH 1500   85 86                N/A
MARSH ISLAND     1500   86     190/  5/  7   N/A           0
FRESH WATER LOCK 1500   83 84  150/  4/  5 1015.5R
AMERADA PASS     1500   84 83  180/  2/  4 1015.9R
$$


USA.gov is the U.S. government's official web portal to all federal, state and local government web resources and services.